Regional Weather Roundup
Issued by NWS

Home | Current Version | Previous Version | Graphics & Text | Print | Product List | Glossary On
Versions: 1 2 3 4 5 6 7 8 9 10 11 12 13 14 15 16 17 18 19 20 21 22 23 24 25 26 27 28 29 30 31 32 33 34 35 36 37 38 39 40 41 42 43 44 45 46 47 48 49 50
000
ASUS43 KBIS 211410
RWRND

NORTH DAKOTA REGIONAL WEATHER ROUNDUP
NATIONAL WEATHER SERVICE BISMARCK ND
800 AM CST FRI NOV 21 2014

NOTE: "FAIR" INDICATES FEW OR NO CLOUDS BELOW 12,000 FEET WITH NO
SIGNIFICANT WEATHER AND/OR OBSTRUCTIONS TO VISIBILITY.


NDZ001>003-009>011-017-211500-
NORTHWEST NORTH DAKOTA

CITY           SKY/WX    TMP DP  RH WIND       PRES   REMARKS
WILLISTON      CLEAR     22  18  85 SW10      29.67F WCI  11
MINOT          PTCLDY    29  20  69 S13       29.64R WCI  19
MINOT AFB      MOCLDY    31  24  75 SW10      29.62S
$$

NDZ018>021-031>035-040>046-211500-
SOUTHWEST NORTH DAKOTA

CITY           SKY/WX    TMP DP  RH WIND       PRES   REMARKS
BISMARCK       PTCLDY    15  12  88 S5        29.77F WCI   8
DICKINSON      CLEAR     32  23  69 W13       29.71S
GARRISON         N/A     24  21  88 S7        29.69S WCI  16
HETTINGER ARPT PTCLDY    28  20  71 W5        29.77S
$$

NDZ004>008-012>016-024-026-027-054-211500-
NORTHEAST NORTH DAKOTA

CITY           SKY/WX    TMP DP  RH WIND       PRES   REMARKS
GRAND FORKS    MOCLDY    13   8  81 S18G25    29.80F WCI  -4
GRND FRKS AFB  PTCLDY    14  10  84 S10       29.79F WCI   1
DEVILS LAKE    PTCLDY    21  10  63 S10       29.69F WCI  10
$$

NDZ022-023-025-028>030-036>039-047>053-211500-
SOUTHEAST NORTH DAKOTA

CITY           SKY/WX    TMP DP  RH WIND       PRES   REMARKS
FARGO          PTCLDY    15   9  76 S15G25    29.90F WCI   0
JAMESTOWN      PTCLDY    15  11  83 S12       29.77F WCI   2
$$




USA.gov is the U.S. government's official web portal to all federal, state and local government web resources and services.